Погода в Улытау

Казахстан     48°39′17″N   67°00′33″E
темп.,
°C
ветер,
м/с
пор.,
м/с
влажн.,
%
обл.,
%
осадки,
мм/ч
давл.,
гПа
погр.,
м
1 марта, пн
пн100:000зюз121897100 5.9 1013849
03:000зюз101698100 3.3 1013778
06:000зюз101598100 6.3 1013765
09:00−1зюз101498100 1.4 1014756
12:00−1зюз101597100 2.0 1015983
15:00−2зюз91495100 0.1 1017664
18:00−7зюз51185100 0.1 1018325
21:00−11зюз4589100 0.0 1019103
2 марта, вт
вт200:00−13зюз359176 0.0 102167
03:00−13зюз349191 0.0 102057
06:00−14зюз459296 0.0 102082
09:00−16зюз589855 0.0 1021160
12:00−14зюз6119673 0.0 1022418
15:00−14зюз71295100 0.1 1022454
18:00−15зюз61297100 0.1 1022391
21:00−16зюз61398100 0.1 1024324
3 марта, ср
ср300:00−16зюз614100100 0.1 1024324
03:00−16зюз613100100 0.1 1024303
06:00−16юз61399100 0.1 1024251
09:00−14юз61494100 0.0 1023284
12:00−7юз81493100 0.1 1022590
15:00−4юз101592100 0.3 1020837
18:00−4юз101693100 0.7 1020903
21:00−4ююз91794100 0.6 1019805
4 марта, чт
чт400:00−4ююз81594100 1.1 1019580
03:00−4ююз91692100 0.4 1018650
06:00−6ю61891100 0.4 1017441
09:00−5ю71887100 0.0 1016470
12:00−2ююз91593100 0.2 1014684
15:00−1ююз7119799 0.5 1012576
18:00−2ююз4997100 2.8 1010457
21:00−3юз51297100 2.8 1010561
5 марта, пт
пт500:00−4з101596100 4.9 1014633
03:00−8зсз81196100 0.8 1018536
06:00−13зюз5999100 0.9 1023252
09:00−14зюз51099100 0.1 1026195
12:00−10зюз7148976 0.1 1027406
15:00−7юз815840 0.0 1027492
18:00−8юз7158924 0.0 1027437
21:00−9юз6149445 0.0 1027299